owner,sensor,date,latitude,longitude,air_temperature,qcFlag 
NDBC,ioos:station:NOAA.NDBC:SMKF1:1,2011-11-03T21:00:00Z,24.6280,-81.1120,20.5,1111122 
NDBC,ioos:station:NOAA.NDBC:SMKF1:1,2011-11-03T22:00:00Z,24.6280,-81.1120,20.3,1111122 
NDBC,ioos:station:NOAA.NDBC:SMKF1:1,2011-11-03T23:00:00Z,24.6280,-81.1120,20.2,1111122 
NDBC,ioos:station:NOAA.NDBC:SMKF1:1,2011-11-04T00:00:00Z,24.6280,-81.1120,20.0,1111122 
NDBC,ioos:station:NOAA.NDBC:SMKF1:1,2011-11-04T01:00:00Z,24.6280,-81.1120,20.3,1111122 
NDBC,ioos:station:NOAA.NDBC:SMKF1:1,2011-11-04T02:00:00Z,24.6280,-81.1120,20.5,1111122 
NDBC,ioos:station:NOAA.NDBC:SMKF1:1,2011-11-04T03:00:00Z,24.6280,-81.1120,20.6,1111122 
NDBC,ioos:station:NOAA.NDBC:SMKF1:1,2011-11-04T04:00:00Z,24.6280,-81.1120,20.8,1111122 
NDBC,ioos:station:NOAA.NDBC:SMKF1:1,2011-11-04T05:00:00Z,24.6280,-81.1120,21.0,1111122 
NDBC,ioos:station:NOAA.NDBC:SMKF1:1,2011-11-04T06:00:00Z,24.6280,-81.1120,20.7,1111122 
NDBC,ioos:station:NOAA.NDBC:SMKF1:1,2011-11-04T07:00:00Z,24.6280,-81.1120,15.7,1111122 
NDBC,ioos:station:NOAA.NDBC:SMKF1:1,2011-11-04T08:00:00Z,24.6280,-81.1120,12.8,1111122 
NDBC,ioos:station:NOAA.NDBC:SMKF1:1,2011-11-04T09:00:00Z,24.6280,-81.1120,11.4,1111122 
NDBC,ioos:station:NOAA.NDBC:SMKF1:1,2011-11-04T10:00:00Z,24.6280,-81.1120,9.8,1111122 
NDBC,ioos:station:NOAA.NDBC:SMKF1:1,2011-11-04T11:00:00Z,24.6280,-81.1120,9.3,1111122 
NDBC,ioos:station:NOAA.NDBC:SMKF1:1,2011-11-04T12:00:00Z,24.6280,-81.1120,9.2,1111122 
NDBC,ioos:station:NOAA.NDBC:SMKF1:1,2011-11-04T13:00:00Z,24.6280,-81.1120,9.6,1111122 
NDBC,ioos:station:NOAA.NDBC:SMKF1:1,2011-11-04T14:00:00Z,24.6280,-81.1120,10.4,1111122 
NDBC,ioos:station:NOAA.NDBC:SMKF1:1,2011-11-04T15:00:00Z,24.6280,-81.1120,11.3,1111122 
NDBC,ioos:station:NOAA.NDBC:SMKF1:1,2011-11-04T16:00:00Z,24.6280,-81.1120,12.3,1111122 
NDBC,ioos:station:NOAA.NDBC:SMKF1:1,2011-11-04T17:00:00Z,24.6280,-81.1120,13.8,1111122 
NDBC,ioos:station:NOAA.NDBC:SMKF1:1,2011-11-04T18:00:00Z,24.6280,-81.1120,15.1,1111122 
NDBC,ioos:station:NOAA.NDBC:SMKF1:1,2011-11-04T19:00:00Z,24.6280,-81.1120,15.0,1111122 
NDBC,ioos:station:NOAA.NDBC:SMKF1:1,2011-11-04T20:00:00Z,24.6280,-81.1120,15.3,1111122 
NDBC,ioos:station:NOAA.NDBC:SMKF1:1,2011-11-04T21:00:00Z,24.6280,-81.1120,16.4,1111122 
NDBC,ioos:station:NOAA.NDBC:SMKF1:1,2011-11-04T22:00:00Z,24.6280,-81.1120,17.6,1111122 
NDBC,ioos:station:NOAA.NDBC:SMKF1:1,2011-11-04T23:00:00Z,24.6280,-81.1120,15.7,1111122 
NDBC,ioos:station:NOAA.NDBC:SMKF1:1,2011-11-05T00:00:00Z,24.6280,-81.1120,14.5,1111122 
NDBC,ioos:station:NOAA.NDBC:SMKF1:1,2011-11-05T01:00:00Z,24.6280,-81.1120,14.1,1111122 
NDBC,ioos:station:NOAA.NDBC:SMKF1:1,2011-11-05T02:00:00Z,24.6280,-81.1120,13.5,1111122 
NDBC,ioos:station:NOAA.NDBC:SMKF1:1,2011-11-05T03:00:00Z,24.6280,-81.1120,13.5,1111122 
NDBC,ioos:station:NOAA.NDBC:SMKF1:1,2011-11-05T04:00:00Z,24.6280,-81.1120,13.1,1111122 
NDBC,ioos:station:NOAA.NDBC:SMKF1:1,2011-11-05T05:00:00Z,24.6280,-81.1120,12.9,1111122 
NDBC,ioos:station:NOAA.NDBC:SMKF1:1,2011-11-05T06:00:00Z,24.6280,-81.1120,12.5,1111122 
NDBC,ioos:station:NOAA.NDBC:SMKF1:1,2011-11-05T07:00:00Z,24.6280,-81.1120,11.3,1111122 
NDBC,ioos:station:NOAA.NDBC:SMKF1:1,2011-11-05T08:00:00Z,24.6280,-81.1120,10.6,1111122 
NDBC,ioos:station:NOAA.NDBC:SMKF1:1,2011-11-05T09:00:00Z,24.6280,-81.1120,9.6,1111122 
NDBC,ioos:station:NOAA.NDBC:SMKF1:1,2011-11-05T10:00:00Z,24.6280,-81.1120,8.6,1111122 
NDBC,ioos:station:NOAA.NDBC:SMKF1:1,2011-11-05T11:00:00Z,24.6280,-81.1120,8.8,1111122 
NDBC,ioos:station:NOAA.NDBC:SMKF1:1,2011-11-05T12:00:00Z,24.6280,-81.1120,9.3,1111122 
NDBC,ioos:station:NOAA.NDBC:SMKF1:1,2011-11-05T13:00:00Z,24.6280,-81.1120,10.6,1111122 
NDBC,ioos:station:NOAA.NDBC:SMKF1:1,2011-11-05T14:00:00Z,24.6280,-81.1120,12.7,1111122 
NDBC,ioos:station:NOAA.NDBC:SMKF1:1,2011-11-05T15:00:00Z,24.6280,-81.1120,14.6,1111122 
NDBC,ioos:station:NOAA.NDBC:SMKF1:1,2011-11-05T16:00:00Z,24.6280,-81.1120,15.6,1111122 
NDBC,ioos:station:NOAA.NDBC:SMKF1:1,2011-11-05T17:00:00Z,24.6280,-81.1120,16.7,1111122 
NDBC,ioos:station:NOAA.NDBC:SMKF1:1,2011-11-05T18:00:00Z,24.6280,-81.1120,16.9,1111122 
NDBC,ioos:station:NOAA.NDBC:SMKF1:1,2011-11-05T19:00:00Z,24.6280,-81.1120,16.2,1111122 
NDBC,ioos:station:NOAA.NDBC:SMKF1:1,2011-11-05T20:00:00Z,24.6280,-81.1120,15.5,1111122 
NDBC,ioos:station:NOAA.NDBC:SMKF1:1,2011-11-05T21:00:00Z,24.6280,-81.1120,16.4,1111122 
NDBC,ioos:station:NOAA.NDBC:SMKF1:1,2011-11-05T22:00:00Z,24.6280,-81.1120,16.5,1111122 
NDBC,ioos:station:NOAA.NDBC:SMKF1:1,2011-11-05T23:00:00Z,24.6280,-81.1120,15.2,1111122 
NDBC,ioos:station:NOAA.NDBC:SMKF1:1,2011-11-06T00:00:00Z,24.6280,-81.1120,14.1,1111122 
NDBC,ioos:station:NOAA.NDBC:SMKF1:1,2011-11-06T01:00:00Z,24.6280,-81.1120,13.1,1111122 
NDBC,ioos:station:NOAA.NDBC:SMKF1:1,2011-11-06T02:00:00Z,24.6280,-81.1120,12.2,1111122 
NDBC,ioos:station:NOAA.NDBC:SMKF1:1,2011-11-06T03:00:00Z,24.6280,-81.1120,11.1,1111122 
NDBC,ioos:station:NOAA.NDBC:SMKF1:1,2011-11-06T04:00:00Z,24.6280,-81.1120,11.3,1111122 
NDBC,ioos:station:NOAA.NDBC:SMKF1:1,2011-11-06T05:00:00Z,24.6280,-81.1120,11.4,1111122 
NDBC,ioos:station:NOAA.NDBC:SMKF1:1,2011-11-06T06:00:00Z,24.6280,-81.1120,10.7,1111122 
NDBC,ioos:station:NOAA.NDBC:SMKF1:1,2011-11-06T07:00:00Z,24.6280,-81.1120,10.3,1111122 
NDBC,ioos:station:NOAA.NDBC:SMKF1:1,2011-11-06T08:00:00Z,24.6280,-81.1120,9.7,1111122 
NDBC,ioos:station:NOAA.NDBC:SMKF1:1,2011-11-06T09:00:00Z,24.6280,-81.1120,9.8,1111122 
NDBC,ioos:station:NOAA.NDBC:SMKF1:1,2011-11-06T10:00:00Z,24.6280,-81.1120,9.6,1111122 
NDBC,ioos:station:NOAA.NDBC:SMKF1:1,2011-11-06T11:00:00Z,24.6280,-81.1120,9.4,1111122 
NDBC,ioos:station:NOAA.NDBC:SMKF1:1,2011-11-06T12:00:00Z,24.6280,-81.1120,9.3,1111122 
NDBC,ioos:station:NOAA.NDBC:SMKF1:1,2011-11-07T01:00:00Z,24.6280,-81.1120,18.0,1111122 
NDBC,ioos:station:NOAA.NDBC:SMKF1:1,2011-11-07T02:00:00Z,24.6280,-81.1120,17.2,1111122 
NDBC,ioos:station:NOAA.NDBC:SMKF1:1,2011-11-07T03:00:00Z,24.6280,-81.1120,16.9,1111122 
NDBC,ioos:station:NOAA.NDBC:SMKF1:1,2011-11-07T04:00:00Z,24.6280,-81.1120,16.4,1111122 
NDBC,ioos:station:NOAA.NDBC:SMKF1:1,2011-11-07T05:00:00Z,24.6280,-81.1120,15.8,1111122 
NDBC,ioos:station:NOAA.NDBC:SMKF1:1,2011-11-07T06:00:00Z,24.6280,-81.1120,15.1,1111122 
NDBC,ioos:station:NOAA.NDBC:SMKF1:1,2011-11-07T07:00:00Z,24.6280,-81.1120,14.8,1111122 
NDBC,ioos:station:NOAA.NDBC:SMKF1:1,2011-11-07T08:00:00Z,24.6280,-81.1120,14.1,1111122 
NDBC,ioos:station:NOAA.NDBC:SMKF1:1,2011-11-07T09:00:00Z,24.6280,-81.1120,14.7,1111122 
NDBC,ioos:station:NOAA.NDBC:SMKF1:1,2011-11-07T10:00:00Z,24.6280,-81.1120,14.7,1111122 
NDBC,ioos:station:NOAA.NDBC:SMKF1:1,2011-11-07T11:00:00Z,24.6280,-81.1120,15.4,1111122 
NDBC,ioos:station:NOAA.NDBC:SMKF1:1,2011-11-07T12:00:00Z,24.6280,-81.1120,15.7,1111122 
NDBC,ioos:station:NOAA.NDBC:SMKF1:1,2011-11-07T13:00:00Z,24.6280,-81.1120,16.0,1111122 
NDBC,ioos:station:NOAA.NDBC:SMKF1:1,2011-11-07T14:00:00Z,24.6280,-81.1120,17.8,1111122 
NDBC,ioos:station:NOAA.NDBC:SMKF1:1,2011-11-07T15:00:00Z,24.6280,-81.1120,19.5,1111122 
NDBC,ioos:station:NOAA.NDBC:SMKF1:1,2011-11-07T16:00:00Z,24.6280,-81.1120,20.6,1111122 
NDBC,ioos:station:NOAA.NDBC:SMKF1:1,2011-11-07T17:00:00Z,24.6280,-81.1120,21.7,1111122 
NDBC,ioos:station:NOAA.NDBC:SMKF1:1,2011-11-07T18:00:00Z,24.6280,-81.1120,22.6,1111122 
NDBC,ioos:station:NOAA.NDBC:SMKF1:1,2011-11-07T19:00:00Z,24.6280,-81.1120,22.6,1111122 
NDBC,ioos:station:NOAA.NDBC:SMKF1:1,2011-11-07T20:00:00Z,24.6280,-81.1120,21.9,1111122 
NDBC,ioos:station:NOAA.NDBC:SMKF1:1,2011-11-07T21:00:00Z,24.6280,-81.1120,19.5,1111122 
NDBC,ioos:station:NOAA.NDBC:SMKF1:1,2011-11-07T22:00:00Z,24.6280,-81.1120,19.9,1111122 
NDBC,ioos:station:NOAA.NDBC:SMKF1:1,2011-11-07T23:00:00Z,24.6280,-81.1120,19.7,1111122 
NDBC,ioos:station:NOAA.NDBC:SMKF1:1,2011-11-08T00:00:00Z,24.6280,-81.1120,19.2,1111122 
NDBC,ioos:station:NOAA.NDBC:SMKF1:1,2011-11-08T01:00:00Z,24.6280,-81.1120,19.6,1111122 
NDBC,ioos:station:NOAA.NDBC:SMKF1:1,2011-11-08T02:00:00Z,24.6280,-81.1120,19.6,1111122 
NDBC,ioos:station:NOAA.NDBC:SMKF1:1,2011-11-08T03:00:00Z,24.6280,-81.1120,19.3,1111122 
NDBC,ioos:station:NOAA.NDBC:SMKF1:1,2011-11-08T04:00:00Z,24.6280,-81.1120,19.1,1111122 
NDBC,ioos:station:NOAA.NDBC:SMKF1:1,2011-11-08T05:00:00Z,24.6280,-81.1120,18.6,1111122 
NDBC,ioos:station:NOAA.NDBC:SMKF1:1,2011-11-08T06:00:00Z,24.6280,-81.1120,18.2,1111122 
NDBC,ioos:station:NOAA.NDBC:SMKF1:1,2011-11-08T07:00:00Z,24.6280,-81.1120,17.5,1111122 
NDBC,ioos:station:NOAA.NDBC:SMKF1:1,2011-11-08T08:00:00Z,24.6280,-81.1120,17.1,1111122 
NDBC,ioos:station:NOAA.NDBC:SMKF1:1,2011-11-08T09:00:00Z,24.6280,-81.1120,16.3,1111122 
NDBC,ioos:station:NOAA.NDBC:SMKF1:1,2011-11-08T10:00:00Z,24.6280,-81.1120,15.8,1111122 
NDBC,ioos:station:NOAA.NDBC:SMKF1:1,2011-11-08T11:00:00Z,24.6280,-81.1120,15.9,1111122 
NDBC,ioos:station:NOAA.NDBC:SMKF1:1,2011-11-08T12:00:00Z,24.6280,-81.1120,16.7,1111122 
NDBC,ioos:station:NOAA.NDBC:SMKF1:1,2011-11-08T13:00:00Z,24.6280,-81.1120,18.2,1111122 
NDBC,ioos:station:NOAA.NDBC:SMKF1:1,2011-11-08T14:00:00Z,24.6280,-81.1120,19.0,1111122 
NDBC,ioos:station:NOAA.NDBC:SMKF1:1,2011-11-08T15:00:00Z,24.6280,-81.1120,19.8,1111122 
NDBC,ioos:station:NOAA.NDBC:SMKF1:1,2011-11-08T16:00:00Z,24.6280,-81.1120,21.5,1111122 
NDBC,ioos:station:NOAA.NDBC:SMKF1:1,2011-11-08T17:00:00Z,24.6280,-81.1120,22.4,1111122 
NDBC,ioos:station:NOAA.NDBC:SMKF1:1,2011-11-08T18:00:00Z,24.6280,-81.1120,22.9,1111122 
NDBC,ioos:station:NOAA.NDBC:SMKF1:1,2011-11-08T19:00:00Z,24.6280,-81.1120,23.1,1111122 
NDBC,ioos:station:NOAA.NDBC:SMKF1:1,2011-11-08T20:00:00Z,24.6280,-81.1120,23.5,1111122 
NDBC,ioos:station:NOAA.NDBC:SMKF1:1,2011-11-08T21:00:00Z,24.6280,-81.1120,22.5,1111122 
NDBC,ioos:station:NOAA.NDBC:SMKF1:1,2011-11-08T22:00:00Z,24.6280,-81.1120,23.1,1111122 
NDBC,ioos:station:NOAA.NDBC:SMKF1:1,2011-11-08T23:00:00Z,24.6280,-81.1120,22.4,1111122 
NDBC,ioos:station:NOAA.NDBC:SMKF1:1,2011-11-09T00:00:00Z,24.6280,-81.1120,21.0,1111122 
NDBC,ioos:station:NOAA.NDBC:SMKF1:1,2011-11-09T01:00:00Z,24.6280,-81.1120,19.5,1111122 
NDBC,ioos:station:NOAA.NDBC:SMKF1:1,2011-11-09T02:00:00Z,24.6280,-81.1120,18.6,1111122 
NDBC,ioos:station:NOAA.NDBC:SMKF1:1,2011-11-09T03:00:00Z,24.6280,-81.1120,17.8,1111122 
NDBC,ioos:station:NOAA.NDBC:SMKF1:1,2011-11-09T04:00:00Z,24.6280,-81.1120,17.1,1111122 
NDBC,ioos:station:NOAA.NDBC:SMKF1:1,2011-11-09T05:00:00Z,24.6280,-81.1120,16.5,1111122 
NDBC,ioos:station:NOAA.NDBC:SMKF1:1,2011-11-09T06:00:00Z,24.6280,-81.1120,16.2,1111122 
NDBC,ioos:station:NOAA.NDBC:SMKF1:1,2011-11-09T07:00:00Z,24.6280,-81.1120,16.2,1111122 
NDBC,ioos:station:NOAA.NDBC:SMKF1:1,2011-11-09T08:00:00Z,24.6280,-81.1120,16.1,1111122 
NDBC,ioos:station:NOAA.NDBC:SMKF1:1,2011-11-09T09:00:00Z,24.6280,-81.1120,15.6,1111122 
NDBC,ioos:station:NOAA.NDBC:SMKF1:1,2011-11-09T10:00:00Z,24.6280,-81.1120,14.6,1111122 
NDBC,ioos:station:NOAA.NDBC:SMKF1:1,2011-11-09T11:00:00Z,24.6280,-81.1120,14.1,1111122 
NDBC,ioos:station:NOAA.NDBC:SMKF1:1,2011-11-09T12:00:00Z,24.6280,-81.1120,13.8,1111122 
NDBC,ioos:station:NOAA.NDBC:SMKF1:1,2011-11-09T13:00:00Z,24.6280,-81.1120,14.7,1111122 
NDBC,ioos:station:NOAA.NDBC:SMKF1:1,2011-11-09T14:00:00Z,24.6280,-81.1120,17.3,1111122 
NDBC,ioos:station:NOAA.NDBC:SMKF1:1,2011-11-09T15:00:00Z,24.6280,-81.1120,19.9,1111122 
NDBC,ioos:station:NOAA.NDBC:SMKF1:1,2011-11-09T16:00:00Z,24.6280,-81.1120,21.9,1111122 
NDBC,ioos:station:NOAA.NDBC:SMKF1:1,2011-11-09T17:00:00Z,24.6280,-81.1120,18.5,1111122 
NDBC,ioos:station:NOAA.NDBC:SMKF1:1,2011-11-09T18:00:00Z,24.6280,-81.1120,18.9,1111122 
NDBC,ioos:station:NOAA.NDBC:SMKF1:1,2011-11-09T19:00:00Z,24.6280,-81.1120,19.4,1111122 
NDBC,ioos:station:NOAA.NDBC:SMKF1:1,2011-11-09T20:00:00Z,24.6280,-81.1120,20.0,1111122 
NDBC,ioos:station:NOAA.NDBC:SMKF1:1,2011-11-09T21:00:00Z,24.6280,-81.1120,20.1,1111122 
NDBC,ioos:station:NOAA.NDBC:SMKF1:1,2011-11-09T22:00:00Z,24.6280,-81.1120,19.7,1111122 
NDBC,ioos:station:NOAA.NDBC:SMKF1:1,2011-11-09T23:00:00Z,24.6280,-81.1120,19.6,1111122 
NDBC,ioos:station:NOAA.NDBC:SMKF1:1,2011-11-10T00:00:00Z,24.6280,-81.1120,19.0,1111122 
NDBC,ioos:station:NOAA.NDBC:SMKF1:1,2011-11-10T01:00:00Z,24.6280,-81.1120,17.6,1111122 
NDBC,ioos:station:NOAA.NDBC:SMKF1:1,2011-11-10T02:00:00Z,24.6280,-81.1120,17.9,1111122 
NDBC,ioos:station:NOAA.NDBC:SMKF1:1,2011-11-10T03:00:00Z,24.6280,-81.1120,17.1,1111122 
NDBC,ioos:station:NOAA.NDBC:SMKF1:1,2011-11-10T04:00:00Z,24.6280,-81.1120,17.9,1111122 
NDBC,ioos:station:NOAA.NDBC:SMKF1:1,2011-11-10T05:00:00Z,24.6280,-81.1120,16.7,1111122 
NDBC,ioos:station:NOAA.NDBC:SMKF1:1,2011-11-10T06:00:00Z,24.6280,-81.1120,15.2,1111122 
NDBC,ioos:station:NOAA.NDBC:SMKF1:1,2011-11-10T07:00:00Z,24.6280,-81.1120,15.3,1111122 
NDBC,ioos:station:NOAA.NDBC:SMKF1:1,2011-11-10T08:00:00Z,24.6280,-81.1120,14.9,1111122 
NDBC,ioos:station:NOAA.NDBC:SMKF1:1,2011-11-10T09:00:00Z,24.6280,-81.1120,14.1,1111122 
NDBC,ioos:station:NOAA.NDBC:SMKF1:1,2011-11-10T10:00:00Z,24.6280,-81.1120,13.5,1111122 
NDBC,ioos:station:NOAA.NDBC:SMKF1:1,2011-11-10T11:00:00Z,24.6280,-81.1120,14.1,1111122 
NDBC,ioos:station:NOAA.NDBC:SMKF1:1,2011-11-10T12:00:00Z,24.6280,-81.1120,14.4,1111122 
NDBC,ioos:station:NOAA.NDBC:SMKF1:1,2011-11-10T14:00:00Z,24.6280,-81.1120,17.7,1111122 
NDBC,ioos:station:NOAA.NDBC:SMKF1:1,2011-11-10T15:00:00Z,24.6280,-81.1120,16.7,1111122 
NDBC,ioos:station:NOAA.NDBC:SMKF1:1,2011-11-10T16:00:00Z,24.6280,-81.1120,16.8,1111122 
NDBC,ioos:station:NOAA.NDBC:SMKF1:1,2011-11-10T17:00:00Z,24.6280,-81.1120,17.6,1111122 
NDBC,ioos:station:NOAA.NDBC:SMKF1:1,2011-11-10T18:00:00Z,24.6280,-81.1120,17.2,1111122 
NDBC,ioos:station:NOAA.NDBC:SMKF1:1,2011-11-10T19:00:00Z,24.6280,-81.1120,18.3,1111122 
NDBC,ioos:station:NOAA.NDBC:SMKF1:1,2011-11-10T20:00:00Z,24.6280,-81.1120,18.4,1111122 
NDBC,ioos:station:NOAA.NDBC:SMKF1:1,2011-11-10T21:00:00Z,24.6280,-81.1120,18.0,1111122 
NDBC,ioos:station:NOAA.NDBC:SMKF1:1,2011-11-10T22:00:00Z,24.6280,-81.1120,17.2,1111122 
NDBC,ioos:station:NOAA.NDBC:SMKF1:1,2011-11-10T23:00:00Z,24.6280,-81.1120,16.1,1111122 
NDBC,ioos:station:NOAA.NDBC:SMKF1:1,2011-11-11T00:00:00Z,24.6280,-81.1120,14.6,1111122 
NDBC,ioos:station:NOAA.NDBC:SMKF1:1,2011-11-11T01:00:00Z,24.6280,-81.1120,13.4,1111122 
NDBC,ioos:station:NOAA.NDBC:SMKF1:1,2011-11-11T02:00:00Z,24.6280,-81.1120,12.3,1111122 
NDBC,ioos:station:NOAA.NDBC:SMKF1:1,2011-11-11T03:00:00Z,24.6280,-81.1120,11.4,1111122 
NDBC,ioos:station:NOAA.NDBC:SMKF1:1,2011-11-11T04:00:00Z,24.6280,-81.1120,10.0,1111122 
NDBC,ioos:station:NOAA.NDBC:SMKF1:1,2011-11-11T05:00:00Z,24.6280,-81.1120,9.0,1111122 
NDBC,ioos:station:NOAA.NDBC:SMKF1:1,2011-11-11T06:00:00Z,24.6280,-81.1120,8.9,1111122 
NDBC,ioos:station:NOAA.NDBC:SMKF1:1,2011-11-11T07:00:00Z,24.6280,-81.1120,8.3,1111122 
NDBC,ioos:station:NOAA.NDBC:SMKF1:1,2011-11-11T08:00:00Z,24.6280,-81.1120,7.0,1111122 
NDBC,ioos:station:NOAA.NDBC:SMKF1:1,2011-11-11T09:00:00Z,24.6280,-81.1120,5.8,1111122 
NDBC,ioos:station:NOAA.NDBC:SMKF1:1,2011-11-11T10:00:00Z,24.6280,-81.1120,4.9,1111122 
NDBC,ioos:station:NOAA.NDBC:SMKF1:1,2011-11-11T11:00:00Z,24.6280,-81.1120,4.5,1111122 
NDBC,ioos:station:NOAA.NDBC:SMKF1:1,2011-11-11T12:00:00Z,24.6280,-81.1120,4.4,1111122 
NDBC,ioos:station:NOAA.NDBC:SMKF1:1,2011-11-11T13:00:00Z,24.6280,-81.1120,5.2,1111122 
NDBC,ioos:station:NOAA.NDBC:SMKF1:1,2011-11-11T14:00:00Z,24.6280,-81.1120,7.6,1111122 
NDBC,ioos:station:NOAA.NDBC:SMKF1:1,2011-11-11T15:00:00Z,24.6280,-81.1120,10.4,1111122 
NDBC,ioos:station:NOAA.NDBC:SMKF1:1,2011-11-11T16:00:00Z,24.6280,-81.1120,12.3,1111122 
NDBC,ioos:station:NOAA.NDBC:SMKF1:1,2011-11-11T17:00:00Z,24.6280,-81.1120,13.9,1111122 
NDBC,ioos:station:NOAA.NDBC:SMKF1:1,2011-11-11T18:00:00Z,24.6280,-81.1120,14.9,1111122 
NDBC,ioos:station:NOAA.NDBC:SMKF1:1,2011-11-11T19:00:00Z,24.6280,-81.1120,16.1,1111122 
NDBC,ioos:station:NOAA.NDBC:SMKF1:1,2011-11-11T20:00:00Z,24.6280,-81.1120,16.7,1111122 
NDBC,ioos:station:NOAA.NDBC:SMKF1:1,2011-11-11T21:00:00Z,24.6280,-81.1120,17.0,1111122 
NDBC,ioos:station:NOAA.NDBC:SMKF1:1,2011-11-11T22:00:00Z,24.6280,-81.1120,16.6,1111122 
NDBC,ioos:station:NOAA.NDBC:SMKF1:1,2011-11-11T23:00:00Z,24.6280,-81.1120,14.3,1111122 
NDBC,ioos:station:NOAA.NDBC:SMKF1:1,2011-11-12T00:00:00Z,24.6280,-81.1120,12.3,1111122 
NDBC,ioos:station:NOAA.NDBC:SMKF1:1,2011-11-12T01:00:00Z,24.6280,-81.1120,10.7,1111122 
NDBC,ioos:station:NOAA.NDBC:SMKF1:1,2011-11-12T02:00:00Z,24.6280,-81.1120,9.3,1111122 
NDBC,ioos:station:NOAA.NDBC:SMKF1:1,2011-11-12T03:00:00Z,24.6280,-81.1120,8.4,1111122 
NDBC,ioos:station:NOAA.NDBC:SMKF1:1,2011-11-12T04:00:00Z,24.6280,-81.1120,7.3,1111122 
NDBC,ioos:station:NOAA.NDBC:SMKF1:1,2011-11-12T05:00:00Z,24.6280,-81.1120,6.7,1111122 
NDBC,ioos:station:NOAA.NDBC:SMKF1:1,2011-11-12T06:00:00Z,24.6280,-81.1120,5.5,1111122 
NDBC,ioos:station:NOAA.NDBC:SMKF1:1,2011-11-12T07:00:00Z,24.6280,-81.1120,5.3,1111122 
NDBC,ioos:station:NOAA.NDBC:SMKF1:1,2011-11-12T08:00:00Z,24.6280,-81.1120,4.1,1111122 
NDBC,ioos:station:NOAA.NDBC:SMKF1:1,2011-11-12T09:00:00Z,24.6280,-81.1120,3.7,1111122 
NDBC,ioos:station:NOAA.NDBC:SMKF1:1,2011-11-12T10:00:00Z,24.6280,-81.1120,4.3,1111122 
NDBC,ioos:station:NOAA.NDBC:SMKF1:1,2011-11-12T11:00:00Z,24.6280,-81.1120,3.5,1111122 
NDBC,ioos:station:NOAA.NDBC:SMKF1:1,2011-11-12T12:00:00Z,24.6280,-81.1120,3.1,1111122 
NDBC,ioos:station:NOAA.NDBC:SMKF1:1,2011-11-12T13:00:00Z,24.6280,-81.1120,4.8,1111122 
NDBC,ioos:station:NOAA.NDBC:SMKF1:1,2011-11-12T14:00:00Z,24.6280,-81.1120,10.1,1111122 
NDBC,ioos:station:NOAA.NDBC:SMKF1:1,2011-11-12T15:00:00Z,24.6280,-81.1120,13.9,1111122 
NDBC,ioos:station:NOAA.NDBC:SMKF1:1,2011-11-12T16:00:00Z,24.6280,-81.1120,15.9,1111122 
NDBC,ioos:station:NOAA.NDBC:SMKF1:1,2011-11-12T17:00:00Z,24.6280,-81.1120,17.4,1111122 
NDBC,ioos:station:NOAA.NDBC:SMKF1:1,2011-11-12T18:00:00Z,24.6280,-81.1120,16.0,1111122 
NDBC,ioos:station:NOAA.NDBC:SMKF1:1,2011-11-12T19:00:00Z,24.6280,-81.1120,16.4,1111122 
NDBC,ioos:station:NOAA.NDBC:SMKF1:1,2011-11-12T20:00:00Z,24.6280,-81.1120,16.8,1111122 
NDBC,ioos:station:NOAA.NDBC:SMKF1:1,2011-11-12T21:00:00Z,24.6280,-81.1120,17.4,1111122 
NDBC,ioos:station:NOAA.NDBC:SMKF1:1,2011-11-12T22:00:00Z,24.6280,-81.1120,17.1,1111122 
NDBC,ioos:station:NOAA.NDBC:SMKF1:1,2011-11-12T23:00:00Z,24.6280,-81.1120,16.3,1111122 
NDBC,ioos:station:NOAA.NDBC:SMKF1:1,2011-11-13T00:00:00Z,24.6280,-81.1120,13.8,1111122 
NDBC,ioos:station:NOAA.NDBC:SMKF1:1,2011-11-13T01:00:00Z,24.6280,-81.1120,12.3,1111122 
NDBC,ioos:station:NOAA.NDBC:SMKF1:1,2011-11-13T02:00:00Z,24.6280,-81.1120,11.8,1111122 
NDBC,ioos:station:NOAA.NDBC:SMKF1:1,2011-11-13T03:00:00Z,24.6280,-81.1120,11.8,1111122 
NDBC,ioos:station:NOAA.NDBC:SMKF1:1,2011-11-13T04:00:00Z,24.6280,-81.1120,9.8,1111122 
NDBC,ioos:station:NOAA.NDBC:SMKF1:1,2011-11-13T05:00:00Z,24.6280,-81.1120,9.7,1111122 
NDBC,ioos:station:NOAA.NDBC:SMKF1:1,2011-11-13T06:00:00Z,24.6280,-81.1120,10.7,1111122 
NDBC,ioos:station:NOAA.NDBC:SMKF1:1,2011-11-13T07:00:00Z,24.6280,-81.1120,10.5,1111122 
NDBC,ioos:station:NOAA.NDBC:SMKF1:1,2011-11-13T08:00:00Z,24.6280,-81.1120,9.5,1111122 
NDBC,ioos:station:NOAA.NDBC:SMKF1:1,2011-11-13T09:00:00Z,24.6280,-81.1120,9.6,1111122 
NDBC,ioos:station:NOAA.NDBC:SMKF1:1,2011-11-13T10:00:00Z,24.6280,-81.1120,9.3,1111122 
NDBC,ioos:station:NOAA.NDBC:SMKF1:1,2011-11-13T11:00:00Z,24.6280,-81.1120,9.6,1111122 
NDBC,ioos:station:NOAA.NDBC:SMKF1:1,2011-11-13T12:00:00Z,24.6280,-81.1120,9.9,1111122 
NDBC,ioos:station:NOAA.NDBC:SMKF1:1,2011-11-13T13:00:00Z,24.6280,-81.1120,10.9,1111122 
NDBC,ioos:station:NOAA.NDBC:SMKF1:1,2011-11-13T14:00:00Z,24.6280,-81.1120,14.6,1111122 
NDBC,ioos:station:NOAA.NDBC:SMKF1:1,2011-11-13T15:00:00Z,24.6280,-81.1120,18.7,1111122 
NDBC,ioos:station:NOAA.NDBC:SMKF1:1,2011-11-13T16:00:00Z,24.6280,-81.1120,20.3,1111122 
NDBC,ioos:station:NOAA.NDBC:SMKF1:1,2011-11-13T17:00:00Z,24.6280,-81.1120,20.7,1111122 
NDBC,ioos:station:NOAA.NDBC:SMKF1:1,2011-11-13T18:00:00Z,24.6280,-81.1120,19.9,1111122 
NDBC,ioos:station:NOAA.NDBC:SMKF1:1,2011-11-13T19:00:00Z,24.6280,-81.1120,19.8,1111122 
NDBC,ioos:station:NOAA.NDBC:SMKF1:1,2011-11-13T20:00:00Z,24.6280,-81.1120,19.8,1111122 
NDBC,ioos:station:NOAA.NDBC:SMKF1:1,2011-11-13T21:00:00Z,24.6280,-81.1120,20.0,1111122 
NDBC,ioos:station:NOAA.NDBC:SMKF1:1,2011-11-13T22:00:00Z,24.6280,-81.1120,20.0,1111122 
NDBC,ioos:station:NOAA.NDBC:SMKF1:1,2011-11-13T23:00:00Z,24.6280,-81.1120,18.7,1111122 
NDBC,ioos:station:NOAA.NDBC:SMKF1:1,2011-11-14T00:00:00Z,24.6280,-81.1120,17.1,1111122 
NDBC,ioos:station:NOAA.NDBC:SMKF1:1,2011-11-14T01:00:00Z,24.6280,-81.1120,16.2,1111122 
NDBC,ioos:station:NOAA.NDBC:SMKF1:1,2011-11-14T02:00:00Z,24.6280,-81.1120,15.6,1111122 
NDBC,ioos:station:NOAA.NDBC:SMKF1:1,2011-11-14T03:00:00Z,24.6280,-81.1120,15.0,1111122 
NDBC,ioos:station:NOAA.NDBC:SMKF1:1,2011-11-14T04:00:00Z,24.6280,-81.1120,14.1,1111122 
NDBC,ioos:station:NOAA.NDBC:SMKF1:1,2011-11-14T05:00:00Z,24.6280,-81.1120,12.7,1111122 
NDBC,ioos:station:NOAA.NDBC:SMKF1:1,2011-11-14T06:00:00Z,24.6280,-81.1120,12.9,1111122 
NDBC,ioos:station:NOAA.NDBC:SMKF1:1,2011-11-14T07:00:00Z,24.6280,-81.1120,12.7,1111122 
NDBC,ioos:station:NOAA.NDBC:SMKF1:1,2011-11-14T08:00:00Z,24.6280,-81.1120,12.8,1111122 
NDBC,ioos:station:NOAA.NDBC:SMKF1:1,2011-11-14T09:00:00Z,24.6280,-81.1120,13.1,1111122 
NDBC,ioos:station:NOAA.NDBC:SMKF1:1,2011-11-14T10:00:00Z,24.6280,-81.1120,12.5,1111122 
NDBC,ioos:station:NOAA.NDBC:SMKF1:1,2011-11-14T11:00:00Z,24.6280,-81.1120,12.7,1111122 
NDBC,ioos:station:NOAA.NDBC:SMKF1:1,2011-11-14T12:00:00Z,24.6280,-81.1120,12.3,1111122 
NDBC,ioos:station:NOAA.NDBC:SMKF1:1,2011-11-14T13:00:00Z,24.6280,-81.1120,13.4,1111122 
NDBC,ioos:station:NOAA.NDBC:SMKF1:1,2011-11-14T14:00:00Z,24.6280,-81.1120,17.3,1111122 
NDBC,ioos:station:NOAA.NDBC:SMKF1:1,2011-11-14T15:00:00Z,24.6280,-81.1120,20.5,1111122 
NDBC,ioos:station:NOAA.NDBC:SMKF1:1,2011-11-14T16:00:00Z,24.6280,-81.1120,20.7,1111122 
NDBC,ioos:station:NOAA.NDBC:SMKF1:1,2011-11-14T17:00:00Z,24.6280,-81.1120,20.1,1111122 
NDBC,ioos:station:NOAA.NDBC:SMKF1:1,2011-11-14T18:00:00Z,24.6280,-81.1120,19.5,1111122 
NDBC,ioos:station:NOAA.NDBC:SMKF1:1,2011-11-14T19:00:00Z,24.6280,-81.1120,19.9,1111122 
NDBC,ioos:station:NOAA.NDBC:SMKF1:1,2011-11-14T20:00:00Z,24.6280,-81.1120,19.9,1111122 
NDBC,ioos:station:NOAA.NDBC:SMKF1:1,2011-11-14T21:00:00Z,24.6280,-81.1120,20.8,1111122 
NDBC,ioos:station:NOAA.NDBC:SMKF1:1,2011-11-14T22:00:00Z,24.6280,-81.1120,20.3,1111122 
NDBC,ioos:station:NOAA.NDBC:SMKF1:1,2011-11-14T23:00:00Z,24.6280,-81.1120,20.4,1111122 
NDBC,ioos:station:NOAA.NDBC:SMKF1:1,2011-11-15T00:00:00Z,24.6280,-81.1120,18.1,1111122 
NDBC,ioos:station:NOAA.NDBC:SMKF1:1,2011-11-15T01:00:00Z,24.6280,-81.1120,18.6,1111122 
NDBC,ioos:station:NOAA.NDBC:SMKF1:1,2011-11-15T02:00:00Z,24.6280,-81.1120,17.2,1111122 
NDBC,ioos:station:NOAA.NDBC:SMKF1:1,2011-11-15T03:00:00Z,24.6280,-81.1120,16.7,1111122 
NDBC,ioos:station:NOAA.NDBC:SMKF1:1,2011-11-15T04:00:00Z,24.6280,-81.1120,16.2,1111122 
NDBC,ioos:station:NOAA.NDBC:SMKF1:1,2011-11-15T05:00:00Z,24.6280,-81.1120,15.8,1111122 
NDBC,ioos:station:NOAA.NDBC:SMKF1:1,2011-11-15T06:00:00Z,24.6280,-81.1120,16.2,1111122 
NDBC,ioos:station:NOAA.NDBC:SMKF1:1,2011-11-15T07:00:00Z,24.6280,-81.1120,16.2,1111122 
NDBC,ioos:station:NOAA.NDBC:SMKF1:1,2011-11-15T08:00:00Z,24.6280,-81.1120,16.6,1111122 
NDBC,ioos:station:NOAA.NDBC:SMKF1:1,2011-11-15T09:00:00Z,24.6280,-81.1120,16.6,1111122 
NDBC,ioos:station:NOAA.NDBC:SMKF1:1,2011-11-15T10:00:00Z,24.6280,-81.1120,16.7,1111122 
NDBC,ioos:station:NOAA.NDBC:SMKF1:1,2011-11-15T11:00:00Z,24.6280,-81.1120,17.0,1111122 
NDBC,ioos:station:NOAA.NDBC:SMKF1:1,2011-11-15T12:00:00Z,24.6280,-81.1120,17.4,1111122 
NDBC,ioos:station:NOAA.NDBC:SMKF1:1,2011-11-15T13:00:00Z,24.6280,-81.1120,17.9,1111122 
NDBC,ioos:station:NOAA.NDBC:SMKF1:1,2011-11-15T14:00:00Z,24.6280,-81.1120,19.9,1111122 
NDBC,ioos:station:NOAA.NDBC:SMKF1:1,2011-11-15T15:00:00Z,24.6280,-81.1120,21.3,1111122 
NDBC,ioos:station:NOAA.NDBC:SMKF1:1,2011-11-15T16:00:00Z,24.6280,-81.1120,21.7,1111122 
NDBC,ioos:station:NOAA.NDBC:SMKF1:1,2011-11-15T17:00:00Z,24.6280,-81.1120,21.1,1111122 